291  
ASUS46 KLOX 241213  
RWRCA  
 
SOUTHERN CALIFORNIA WEATHER ROUNDUP  
NATIONAL WEATHER SERVICE OXNARD CALIFORNIA  
500 AM PDT SAT JUN 24 2017  
 
NOTE: "FAIR" INDICATES FEW OR NO CLOUDS BELOW 12,000 FEET WITH NO  
SIGNIFICANT WEATHER AND/OR S TO VISIBILITY
.  
 
- STATIONS PRECEEDED BY AN ASTERISK (*) ARE NOT NWS OR FAA  
STATIONS AND ARE NOT SUBJECT TO NWS AND FAA QUALITY CONTROL.
 
 
CAZ041-042-087-241300-  
LA AND ORANGE COUNTY COASTAL AREAS  
 
 
CITY SKY/WX TMP DP RH WIND PRES REMARKS
 
L.A. DOWNTOWN CLOUDY 63 60 90 CALM 29.87F  
L.A. AIRPORT CLOUDY 63 61 93 N5 29.87F FOG  
LONG BEACH CLOUDY 63 59 87 NW8 29.86F  
 
CITY SKY/WX TMP DP RH WIND PRES REMARKS
 
AVALON N/A 61 N/A N/A E1 N/A  
FULLERTON CLOUDY 64 60 87 VRB3 29.86F  
*GETTY CENTER N/A 57 57 100 W3 N/A  
HAWTHORNE CLOUDY 63 60 90 CALM 29.87F  
*LEO CARRILLO N/A 60 58 94 SW2 N/A  
*LOS ALAMITOS CLOUDY 62 59 89 N5 29.86F  
*REDONDO BEACH N/A 61 58 92 SW2 29.86F  
SANTA ANA CLOUDY 65 61 87 N5 29.86F  
STA MONICA APT CLOUDY 62 60 93 VRB3 29.89S  
*UCLA N/A 61 57 88 N5 29.83F  
 

 
 
CAZ547-548-048-241300-  
LA COUNTY VALLEYS AND INLAND EMPIRE  
 
 
CITY SKY/WX TMP DP RH WIND PRES REMARKS
 
BURBANK MOCLDY 62 58 86 SE3 29.87F  
VAN NUYS MOCLDY 65 61 87 VRB3 29.87F  
 
CITY SKY/WX TMP DP RH WIND PRES REMARKS
 
CORONA AIRPORT MOSUNNY 63 60 90 CALM 29.89S  
*CHATSWORTH N/A 66 59 78 CALM 29.83F  
CHINO PTCLDY 64 59 83 CALM 29.89F HAZE  
*CLAREMONT N/A 64 59 83 CALM N/A  
MARCH AFB PTCLDY 63 62 99 W3 29.90S  
*NORTHRIDGE N/A 66 57 72 E2 N/A  
ONTARIO MOCLDY 66 60 81 S5 29.88F  
*PASADENA N/A 64 61 88 CALM N/A  
RIVERSIDE PTCLDY 65 60 84 CALM 29.89S  
SAN BERNARDINO FAIR 70 58 66 CALM 29.90S  
*SAN RAFAEL HI N/A 63 58 85 N2 N/A  
*SAUGUS N/A 64 58 81 CALM N/A  
*WHITEMAN AP NOT AVBL  
*WHITTIER HILL N/A 58 58 100 CALM N/A  
*WOODLAND HILL N/A 66 57 72 SE1 N/A  
 

 
 
CAZ054-055-241300-  
LA AND SAN BERNARDINO COUNTY MOUNTAINS  
 
 
CITY SKY/WX TMP DP RH WIND PRES REMARKS
 
*BIG BEAR AIRP MOSUNNY 54 30 40 CALM 30.28R  
*BIG PINES N/A 72 28 19 CALM N/A  
*CHILAO N/A 80 28 15 NW5 N/A  
SANDBERG PTCLDY 80 50 34 N16 30.11R  
*WARM SPRINGS N/A 78 54 42 W20 N/A  
 

 
 
CAZ028-029-059-060-099-241300-  
ANTELOPE VALLEY AND SURROUNDING AREAS  
 
 
CITY SKY/WX TMP DP RH WIND PRES REMARKS
 
LANCASTER PTCLDY 83 54 36 SW8 29.91R  
PALMDALE PTCLDY 81 50 33 S8 29.93R  
*POPPY PARK N/A 82 52 34 W3G21 N/A  
 
CITY SKY/WX TMP DP RH WIND PRES REMARKS
 
29 PALMS PTCLDY 90 33 13 NW6 29.89S  
BARSTOW/DAGGET CLEAR 82 44 26 W15 29.84S  
BISHOP CLEAR 69 43 38 W10 30.10R  
CHINA LAKE CLEAR 77 37 23 CALM 29.87R  
EDWARDS AFB PTCLDY 78 50 37 SW8 29.88R  
MOJAVE CLEAR 88 52 29 NW16G28 29.91S  
NEEDLES CLEAR 94 39 14 W5 29.71R HX 90  
VICTORVILLE PTCLDY 75 37 25 CALM 29.96R  
 

 
 
CAZ039-040-241300-  
VENTURA AND SANTA BARBARA COUNTY COAST  
 
 
CITY SKY/WX TMP DP RH WIND PRES REMARKS
 
CAMARILLO CLOUDY 60 58 92 W3 29.88S FOG  
NWS OXNARD N/A 59 56 90 CALM 29.87F  
OXNARD AIRPORT CLOUDY 60 58 92 W5 29.89S  
*POINT MUGU CLOUDY 60 57 89 NW7 29.89S  
SBA APT/GOLETA CLOUDY 59 59 100 SE3 29.87S  
*SANTA BARBARA N/A 60 56 85 W2 29.95S  
*VENTURA N/A 60 58 92 CALM 29.86S  
 

 
 
CAZ044-045-241300-  
VENTURA COUNTY VALLEYS  
 
 
CITY SKY/WX TMP DP RH WIND PRES REMARKS
 
*SIMI VALLEY N/A 60 58 91 CALM 29.82F  
*WESTLAKE VILL N/A 58 55 91 CALM 29.84S  
*OJAI N/A 58 55 89 CALM 29.82R  
*FILLMORE N/A 60 57 92 NW1 29.91F  
 

 
 
CAZ053-241300-  
VENTURA COUNTY MOUNTAINS  
 
 
CITY SKY/WX TMP DP RH WIND PRES REMARKS
 
*LOCKWOOD VLY N/A 59 39 47 MISG N/A  
*FRAZIER MTN N/A 68 19 15 N5 29.88S  
*ROSE VALLEY N/A 59 55 88 MISG N/A  
 

 
 
CAZ034-035-036-241300-  
CENTRAL COAST AND SANTA YNEZ VALLEY  
 
 
CITY SKY/WX TMP DP RH WIND PRES REMARKS
 
SAN LUIS OBISP CLOUDY 57 55 93 NW13 29.93F  
SANTA MARIA FOG 55 55 100 W10 29.94S VSB 3/4  
 
CITY SKY/WX TMP DP RH WIND PRES REMARKS
 
*CAL POLY SLO N/A 55 55 100 W2 N/A  
*LOMPOC CLOUDY 56 55 97 NW7 29.93F  
*PISMO BEACH N/A 57 55 94 W1 29.94S  
*SANTA YNEZ CLOUDY 55 54 94 CALM 29.93S  
 

 
 
CAZ037-038-051-241300-  
SAN LUIS OBISPO COUNTY INTERIOR AND CUYAMA VALLEY  
 
 
CITY SKY/WX TMP DP RH WIND PRES REMARKS
 
*CUYAMA N/A 70 54 56 CALM 29.80S  
PASO ROBLES PTCLDY 57 54 89 N5 29.93S  
 

 
 
CAZ032-033-061-241300-  
SOUTHERN DESERTS  
 
 
CITY SKY/WX TMP DP RH WIND PRES REMARKS
 
BLYTHE PTCLDY 86 58 38 S9 29.70R  
IMPERIAL CLEAR 80 66 62 E3 29.67R  
PALM SPRINGS PTCLDY 89 58 34 CALM 29.71S  
THERMAL MOCLDY 82 66 58 S5 29.67R  
 

 
 
ELSEWHERE ACROSS THE WESTERN UNITED STATES AND MEXICO  
 
 
CITY SKY/WX TMP DP RH WIND PRES REMARKS
 
DEATH VALLEY, N/A 101 29 8 CALM N/A HX 94  
DENVER, CO CLOUDY 51 47 86 NE7 30.30R  
GRAND CANYON, CLEAR 47 28 47 CALM 30.26R  
HONOLULU, HI PTCLDY 75 66 73 NE5 29.98F  
KAHULUI, MAUI CLOUDY 75 66 73 E5 29.97F  
LAKE TAHOE, CA CLEAR 51 47 86 CALM 30.30S  
LAS VEGAS, NV CLEAR 89 28 11 CALM 29.85R  
MAMMOTH LAKES, FAIR 56 38 49 W12 30.37S  
MEXICO CITY, M MOCLDY 63 48 59 W8 30.26R  
PHOENIX, AZ MOCLDY 92 47 21 CALM 29.73R  
PORTLAND, OR CLEAR 61 50 67 CALM 30.05F  
RENO, NV CLEAR 68 46 45 SW3 30.18R  
SALT LAKE CITY CLEAR 62 40 44 S3 30.17R  
SAN DIEGO, CA CLOUDY 65 62 90 NW6 29.88R  
SAN FRANCISCO, MOCLDY 58 54 86 W12 29.93S  
SAN JOSE, CA CLOUDY 63 59 87 W3 29.93R  
SEATTLE, WA CLEAR 62 49 62 E3 30.15S  
TIJUANA, MEX CLOUDY 63 57 82 W6 29.89R  
 

 
 
STATION/POSITION TIME TEMP WIND PRES VSBY WAVE
 
AIR SEA DIR/SP/G HT/PER  
(UTC) (F) (DEG/KT/KT) (MB) (MI) (FT/S)  
POINT ARGUELLO B NOT AVBL  
WEST SANTA BARBA 1150 57 58 310/ 17/ 23 1012.4F 5/11  
POINT CONCEPTION NOT AVBL  
EAST SANTA BARBA 1200 59 62 290/ 6/ 8 1012.8  
SANTA MONICA BAY 1150 61 66 340/ 10/ 16 1011.6S 4/15  
 
CLICK HERE TO GO TO PREVIOUS BULLETINS.

The Nexlab CA Page Main Text Page